#timestamp,LO_Frequency,Hit,StdDev 
1563739215.5,286047000.9,N
1563739235.4,286047000.7,N
1563739255.2,286046999.8,N
1563739275.0,286047000.3,N
1563739276.0,286047000.3,N
1563739295.8,286046999.9,N
1563739315.6,286047002.3,N
1563739335.5,286047001.6,N
1563739355.0,286047002.3,N
1563739355.9,286047002.3,N
1563739375.7,286047000.3,N
1563739395.6,286047002.0,N
1563739415.4,286046999.7,N
1563739435.3,286047001.5,N
1563739455.1,286047002.6,N
1563739456.0,286047002.6,N
1563739475.8,286047000.2,N
1563739495.7,286046999.9,N
1563739515.5,286047002.8,N
1563739535.4,286047002.5,N
1563739555.2,286047002.4,N
1563739575.0,286047001.5,N
1563739575.9,286047001.5,N
1563739595.8,286047004.1,Y
1563739615.6,286047002.2,P
1563739635.5,286047004.4,P
1563739655.3,286047004.0,N
1563739675.1,286047004.2,Y
1563739695.9,286046998.6,P
1563739715.7,286047000.5,N
1563739735.6,286047001.2,N
1563739755.4,286047001.0,N
1563739775.2,286047000.9,N
1563739795.1,286047001.1,N
1563739796.0,286047001.1,N
1563739815.8,286047000.3,N
1563739835.6,286047000.0,N
1563739855.5,286046998.1,N
1563739875.3,286046998.4,N
1563739895.2,286046999.2,N
1563739915.9,286046999.6,N
1563739935.7,286046999.2,N
1563739955.6,286046996.6,N
1563739975.4,286046999.0,N
1563739995.3,286047001.0,N
1563740015.1,286046998.9,N
1563740016.0,286046998.9,N
1563740035.8,286046999.3,N
1563740055.7,286046998.5,N
1563740075.5,286046999.0,N
1563740095.3,286047000.2,N
1563740115.2,286046998.1,N
1563740135.0,286046998.2,N
1563740135.9,286046998.2,N
1563740155.8,286047000.2,N
1563740175.6,286047000.2,N
1563740195.4,286046998.3,N
1563740215.3,286046999.7,N
1563740235.1,286047002.2,N
1563740255.9,286046999.9,N
1563740275.7,286047000.4,N
1563740295.5,286046998.8,N
1563740315.4,286047000.8,N
1563740335.2,286046998.9,N
1563740355.1,286047001.0,N
1563740356.0,286047001.0,N
1563740375.8,286047000.9,N
1563740395.6,286046999.9,N
1563740415.5,286047000.9,N
1563740435.3,286047002.8,N
1563740455.1,286047002.5,N
1563740475.9,286047002.3,N
1563740495.7,286047002.1,N
1563740515.6,286047001.8,N
1563740535.4,286047000.5,N
1563740555.2,286047000.9,N
1563740575.1,286047002.6,N
1563740576.0,286047002.6,N
1563740595.8,286047002.0,N
1563740615.7,286047002.1,N
1563740635.5,286047001.2,N
1563740655.3,286047000.8,N
1563740675.2,286046998.8,N
1563740695.0,286047001.0,N
1563740695.9,286047001.0,N
1563740715.8,286046999.1,N
1563740735.6,286046999.3,N
1563740755.4,286047000.4,N
1563740775.3,286047001.0,N
1563740795.1,286047001.1,N
1563740815.9,286047000.6,N
1563740835.7,286047001.8,N
1563740855.5,286047003.9,Y
1563740875.4,286047002.9,P
1563740895.2,286047003.6,P
1563740915.0,286047002.9,N
1563740916.0,286047002.9,Y
1563740935.8,286047001.7,P
1563740955.6,286047002.2,P
1563740975.5,286047002.2,P
1563740995.3,286047004.4,Y
1563741015.1,286047000.7,P
1563741035.9,286046998.8,N
1563741055.7,286046999.3,N
1563741075.6,286046999.0,N
1563741095.4,286046999.6,N
1563741115.2,286046998.8,N
1563741135.1,286046997.0,N
1563741136.0,286046997.0,N
1563741155.8,286046998.0,N
1563741175.7,286046995.0,Y
1563741195.5,286046999.6,P
1563741215.3,286046997.0,P
1563741235.2,286046996.5,P
1563741255.0,286046995.0,Y
1563741255.9,286046995.0,P
1563741275.8,286046998.5,N
1563741295.6,286046999.3,N
1563741315.4,286046996.6,N
1563741335.3,286046996.9,N
1563741355.1,286046996.9,N
1563741375.8,286046997.2,N
1563741395.7,286046995.3,Y
1563741415.5,286046998.5,P
1563741435.4,286046999.0,N
1563741455.2,286046998.8,N
1563741475.0,286046998.3,N
1563741475.9,286046998.3,N
1563741495.8,286047001.2,N
1563741515.6,286046998.7,N
1563741535.5,286047001.2,N
1563741555.3,286047001.0,N
1563741575.1,286046998.2,N
1563741595.9,286046998.3,N
1563741615.7,286046999.0,N
1563741635.5,286047001.1,N
1563741655.4,286047001.1,N
1563741675.2,286047001.0,N
1563741695.1,286047000.9,N
1563741696.0,286047000.9,N
1563741715.8,286047000.8,N
1563741735.6,286047001.2,N
1563741755.5,286046999.2,N
1563741775.3,286046998.8,N
1563741795.2,286046999.0,N
1563741815.9,286046999.5,N
1563741835.7,286046999.4,N
1563741855.6,286046998.8,N
1563741875.4,286046999.5,N
1563741895.2,286046996.7,N
1563741915.1,286046997.1,N
1563741916.0,286046997.1,N
1563741935.8,286046995.4,Y
1563741955.7,286046995.8,P
1563741975.5,286046997.6,N
1563741995.3,286046995.8,N
1563742015.2,286046993.7,Y
1563742035.0,286046997.2,P
1563742035.9,286046997.2,P
1563742055.8,286046999.3,P
1563742075.6,286047001.1,N
1563742095.4,286047001.2,N
1563742115.3,286047000.8,N
1563742135.1,286047000.8,N
1563742155.9,286046999.0,N
1563742175.7,286046998.4,N
1563742195.5,286046998.3,N
1563742215.4,286046998.6,N
1563742235.2,286047001.2,N
1563742255.0,286047000.5,N
1563742255.9,286047000.5,N
1563742275.8,286046998.2,N
1563742295.6,286046998.4,N
1563742315.5,286046999.4,N
1563742335.3,286046999.5,N
1563742355.1,286046999.3,N
1563742375.8,286046998.2,N
1563742395.7,286047001.2,N
1563742415.5,286047000.4,N
1563742435.3,286047001.0,N
1563742455.2,286047001.5,N
1563742475.0,286047000.4,N
1563742475.9,286047000.4,N
1563742495.7,286047000.3,N
1563742515.6,286047002.1,N
1563742535.4,286047002.3,N
1563742555.3,286047000.6,N
1563742575.1,286046999.9,N
1563742595.8,286047000.4,N
1563742615.7,286047000.3,N
1563742635.5,286047000.1,N
1563742655.4,286047000.1,N
1563742675.2,286047000.3,N
1563742695.0,286047000.3,N
1563742695.9,286047000.3,N
1563742715.8,286046999.9,N
1563742735.6,286047000.5,N
1563742755.4,286047000.2,N
1563742775.3,286047000.4,N
1563742795.1,286047000.5,N
